ITASAT 1 (43786 NORAD) Tracking and Keplerian Element Data

This shows tracking and keplerian element data for the satellite.

Feedback or suggestion? Click here.




ElementValue
Catalog43786
NameITASAT 1
Epoch Orbit3302
Epoch Day193.74550935
Epoch Year2019
RAAN265.4776
Inclination97.7459
Eccentricity0.0013856
Argument of Perigee245.1021
Mean Anonmoly114.876
Mean Motion14.95144916
Decay Rate5.82E-06
L11 43786U 18099AE 19193.74550935 .00000582 00000-0 58221-4 0 9993
L22 43786 97.7459 265.4776 0013856 245.1021 114.8760 14.95144916 33025

Live tracking and technical data element details for ITASAT 1 (NORAD 43786). ITASAT 1 can be tracked NOW for your location showing map with azimuth and elevation plus other details from your city location.

Track the satellite on the map from your city or location and see movement details for azimuth, elevation, latitude, longitude, range, height, and movement on the map or in text.







IsCatalogInMostPopularTable: catalog: 43786, numindb: 96
Update: records affected: 1



GetName: 43786 ITASAT 1

Hit Count: updated at: Tue, 16 Jul 2019 21:11:45 GMT